{"data":{"norad_id":68668,"intl_designator":"2026-077G","name":"STARLINK-37221","alt_names":[],"object_type":"PAYLOAD","status":"ACTIVE","operator":null,"country":"US","launch_date":"2026-04-11","launch_site_code":"AFWTR","launch_vehicle":null,"mission":null,"orbit_class":"UNKNOWN","rcs_meters":null,"size_class":null,"mass_kg":null,"dimensions":null,"purposes":["comms"],"wikipedia_slug":null,"has_3d_model":false,"image_url":null,"decayed_at":null,"tle_current":{"epoch":"2026-05-25T03:01:36.242688Z","epoch_age_seconds":61468,"freshness":"FRESH","line1":"1 68668U 26077G   26145.12611392  .00018394  00000+0  57035-3 0  9996","line2":"2 68668  97.2866  16.7270 0002479  97.5440 262.6084 15.33462591  6876","mean_motion":15.33462591,"eccentricity":0.0002479,"inclination_deg":97.2866,"raan_deg":16.727,"arg_perigee_deg":97.544,"mean_anomaly_deg":262.6084,"bstar":0.00057035,"rev_number":687,"period_min":93.905127418919,"perigee_km":463.79430119811,"apogee_km":467.18737187946,"semimajor_km":6843.6278365388,"source":"CELESTRAK","updated_at":"2026-05-25T13:38:21.992589Z"}}}